Change the Weather History Date:

Thursday, March 20, 2014

  Actual Average Record
Temperature  
Mean Temperature 54 °F -  
Max Temperature 75 °F 66 °F 84 °F (2004)
Min Temperature 35 °F 44 °F 32 °F (2001)
Degree Days  
Heating Degree Days 11    
Growing Degree Days 4 (Base 50)    
Moisture  
Dew Point 29 °F    
Average Humidity 44    
Maximum Humidity 82    
Minimum Humidity 16    
Precipitation  
Precipitation 0.00 in - - ()
Sea Level Pressure  
Sea Level Pressure 30.10 in    
Wind  
Wind Speed 5 mph (South)    
Max Wind Speed 15 mph    
Max Gust Speed 18 mph    
Visibility 10 miles    
Events      
Averages and records for this station are not official NWS values.
T = Trace of Precipitation, MM = Missing Value Source: NWS Daily Summary

Daily Weather History Graph

Daily Weather History Graph

Search for Another Location

Airport or City:

Trip Planner

Search our weather history database for the weather conditions in past years. The results will help you decide how hot, cold, wet, or windy it might be!

Date:

Astronomy

Mar. 20, 2014 Rise Set
Actual Time 7:35 AM CDT 7:43 PM CDT
Civil Twilight 7:11 AM CDT 8:08 PM CDT
Nautical Twilight 6:42 AM CDT 8:37 PM CDT
Astronomical Twilight 6:13 AM CDT 9:06 PM CDT
Moon 11:51 PM CDT (3/20) 9:55 AM CDT (3/20)
Length of Visible Light 12h 57m
Length of Day
12h 07m
Waning Gibbous, 84% of the Moon is Illuminated
Mar 20
Waning Gibbous
Mar 23
Last Quarter
Mar 30
New
Apr 7
First Quarter
Apr 15
Full

Hourly Weather History & Observations

Time (CDT) Temp. Windchill Dew Point Humidity Pressure Visibility Wind Dir Wind Speed Gust Speed Precip Events Conditions
12:53 AM 46.0 °F - 28.0 °F 50% 30.21 in 10.0 mi Calm Calm - N/A   Clear
1:53 AM 44.1 °F - 30.0 °F 58% 30.20 in 10.0 mi Calm Calm - N/A   Clear
2:53 AM 42.1 °F - 28.9 °F 60% 30.20 in 10.0 mi Calm Calm - N/A   Partly Cloudy
3:53 AM 39.9 °F 36.7 °F 28.9 °F 65% 30.18 in 10.0 mi West 4.6 mph - N/A   Clear
4:53 AM 37.9 °F 35.5 °F 28.9 °F 70% 30.18 in 10.0 mi WSW 3.5 mph - N/A   Clear
5:53 AM 36.0 °F 33.3 °F 28.9 °F 76% 30.18 in 10.0 mi WSW 3.5 mph - N/A   Clear
6:53 AM 36.0 °F 33.3 °F 30.0 °F 79% 30.19 in 10.0 mi West 3.5 mph - N/A   Clear
7:53 AM 35.1 °F - 30.0 °F 82% 30.19 in 10.0 mi Calm Calm - N/A   Clear
8:53 AM 39.0 °F 36.8 °F 33.1 °F 79% 30.20 in 10.0 mi West 3.5 mph - N/A   Clear
9:53 AM 51.1 °F - 34.0 °F 52% 30.21 in 10.0 mi Calm Calm - N/A   Clear
10:53 AM 57.9 °F - 33.1 °F 39% 30.20 in 10.0 mi SE 8.1 mph - N/A   Clear
11:53 AM 62.1 °F - 28.0 °F 28% 30.19 in 10.0 mi SE 9.2 mph - N/A   Clear
12:53 PM 66.0 °F - 28.0 °F 24% 30.16 in 10.0 mi Variable 5.8 mph 17.3 mph N/A   Clear
1:53 PM 70.0 °F - 26.1 °F 19% 30.11 in 10.0 mi SSE 10.4 mph 18.4 mph N/A   Clear
2:53 PM 72.0 °F - 25.0 °F 17% 30.07 in 10.0 mi SSE 15.0 mph - N/A   Clear
3:53 PM 72.0 °F - 25.0 °F 17% 30.04 in 10.0 mi SSE 12.7 mph 17.3 mph N/A   Clear
4:53 PM 73.9 °F - 24.1 °F 16% 30.00 in 10.0 mi SE 11.5 mph - N/A   Clear
5:53 PM 73.9 °F - 25.0 °F 16% 29.98 in 10.0 mi SSE 13.8 mph - N/A   Clear
6:53 PM 72.0 °F - 27.0 °F 19% 29.97 in 10.0 mi SSE 8.1 mph - N/A   Clear
7:53 PM 64.9 °F - 28.9 °F 26% 29.96 in 10.0 mi SSE 8.1 mph - N/A   Clear
8:53 PM 61.0 °F - 30.0 °F 31% 29.96 in 10.0 mi SSE 8.1 mph - N/A   Clear
9:53 PM 57.9 °F - 32.0 °F 37% 29.96 in 10.0 mi SSE 10.4 mph - N/A   Clear
10:53 PM 57.0 °F - 33.1 °F 40% 29.96 in 10.0 mi SSE 12.7 mph - N/A   Clear
11:53 PM 54.0 °F - 34.0 °F 47% 29.95 in 10.0 mi SE 12.7 mph - N/A   Clear